パンスターズ彗星

C/2019 U5 ( PanSTARRS )

English version
Home page
Updated on September 18, 2021

---------------------------------------------------------------------

・ プロフィール

発見日 2019年10月22日
発見光度 21.1等
発見者 Pan-STARRS 1 telescope (Haleakala)

・ 写真集

・ 軌道要素

Epoch 2023 Apr. 6.0 TT = JDT 2460040.5
T 2023 Mar. 29.81364 TT                                 Rudenko
q   3.6240704            (2000.0)            P               Q
z  -0.0004174      Peri.  181.49517     -0.99908007     +0.00771134
 +/-0.0000020      Node     2.63694     -0.02313603     +0.73133404
e   1.0015127      Incl.  113.52001     -0.03610745     -0.68197585
From 467 observations 2019 Oct. 11-2021 May 2, mean residual 0".4.

・ 星図

・ 光度変化

        m1 = 2.2 + 5 logΔ + 12.5 log r

---------------------------------------------------------------------

軌道要素はM.P.E.C. 2021-J28に掲載されたものです。
星図はステラナビゲータ Ver.10 (アストロアーツ) で作成したものです。
光度グラフはComet for Windowsで作成したものです。

---------------------------------------------------------------------

Copyright(C) Seiichi Yoshida (comet@aerith.net). All rights reserved.